CW5689 Weather Reports


Display with metric or nautical units.
time (UTC)temp
F
wind
direction
speed
MPH
gust
MPH
rain 1hr
in
rain 24hr
in
rain mn
in
humidity
%
barometer
mb
20260903065020 73 0 1.0 4.0 0.00 0.10 0.00 86 1010.7
20260903065010 74 66 0.0 0.0 0.00 0.10 0.00 85 1009.9
20260903064541 73 66 2.0 4.0 0.00 0.10 0.00 86 1010.8
20260903064510 74 66 3.0 0.0 0.00 0.10 0.00 85 1009.9
20260903064018 73 65 0.0 3.0 0.00 0.10 0.00 85 1010.8
20260903064010 74 66 3.0 0.0 0.00 0.10 0.00 84 1010.0
20260903063522 74 0 0.0 3.0 0.00 0.10 0.00 85 1010.8
20260903063510 74 67 0.0 0.0 0.00 0.10 0.00 84 1010.1
20260903063054 74 0 0.0 4.0 0.00 0.10 0.00 85 1010.9
20260903063010 74 67 0.0 0.0 0.00 0.10 0.00 84 1010.1
20260903062521 74 67 1.0 4.0 0.00 0.10 0.00 84 1010.9
20260903062510 74 67 3.0 0.0 0.00 0.10 0.00 84 1010.1
20260903062024 74 68 1.0 4.0 0.00 0.10 0.00 84 1010.9
20260903062010 74 68 2.0 0.0 0.00 0.10 0.00 83 1010.0
20260903061541 74 0 0.0 0.0 0.00 0.10 0.00 84 1010.9
20260903061510 74 68 0.0 0.0 0.00 0.10 0.00 83 1010.1
20260903061024 74 0 0.0 0.0 0.00 0.10 0.00 83 1010.9
20260903061010 74 68 0.0 0.0 0.00 0.10 0.00 83 1010.1
20260903060520 74 0 0.0 4.0 0.00 0.10 0.00 83 1010.9
20260903060511 74 68 0.0 0.0 0.00 0.10 0.00 83 1010.1
20260903060042 74 0 0.0 4.0 0.00 0.10 0.00 83 1010.9
20260903060010 75 68 0.0 0.0 0.00 0.10 0.00 83 1010.0
20260903055520 74 68 1.0 4.0 0.00 0.10 0.00 83 1010.8
20260903055510 75 68 2.0 0.0 0.00 0.10 0.00 83 1010.1
20260903055020 74 0 0.0 3.0 0.00 0.10 0.00 83 1010.8
20260903055010 75 69 0.0 0.0 0.00 0.10 0.00 83 1010.0
20260903054545 74 69 1.0 3.0 0.00 0.10 0.00 83 1010.8
20260903054510 75 69 1.0 0.0 0.00 0.10 0.00 83 1010.0
20260903054018 74 68 2.0 5.0 0.00 0.10 0.00 83 1010.8
20260903054011 75 68 3.0 0.0 0.00 0.10 0.00 83 1010.0
20260903053530 74 68 3.0 5.0 0.00 0.10 0.00 83 1010.7
20260903053511 75 68 2.0 0.0 0.00 0.10 0.00 83 1010.0
20260903053106 75 72 2.0 4.0 0.00 0.10 0.00 83 1010.8
20260903053010 75 72 3.0 0.0 0.00 0.10 0.00 83 1010.0
20260903052523 75 76 2.0 4.0 0.00 0.10 0.00 83 1010.9
20260903052510 75 76 4.0 0.0 0.00 0.10 0.00 83 1010.0
20260903052021 75 78 1.0 4.0 0.00 0.10 0.00 83 1010.9
20260903052010 75 78 2.0 0.0 0.00 0.10 0.00 82 1010.1
20260903051545 75 0 0.0 0.0 0.00 0.10 0.00 82 1010.9
20260903051021 75 0 0.0 0.0 0.00 0.10 0.00 82 1011.0
20260903051010 75 79 0.0 0.0 0.00 0.10 0.00 82 1010.2
20260903050520 75 0 0.0 0.0 0.00 0.10 0.00 82 1011.0
20260903050510 75 79 0.0 0.0 0.00 0.10 0.00 81 1010.2
20260903050045 75 0 0.0 0.0 0.00 0.10 0.00 82 1011.0
20260903050013 76 80 0.0 0.0 0.00 0.10 0.00 81 1010.3
20260903045520 75 0 0.0 0.0 0.00 0.10 0.10 82 1011.0
20260903045510 76 80 0.0 0.0 0.00 0.10 0.10 81 1010.3
20260903045021 75 0 0.0 0.0 0.00 0.10 0.10 81 1011.0
20260903045010 76 80 0.0 0.0 0.00 0.10 0.10 81 1010.2
20260903044550 75 0 0.0 0.0 0.00 0.10 0.10 81 1010.9
20260903044510 76 80 0.0 0.0 0.00 0.10 0.10 81 1010.3
20260903044019 75 0 0.0 0.0 0.00 0.10 0.10 82 1011.0
20260903044010 76 80 0.0 0.0 0.00 0.10 0.10 81 1010.3
20260903043525 75 0 0.0 0.0 0.00 0.10 0.10 81 1011.0
20260903043510 76 80 0.0 0.0 0.00 0.10 0.10 81 1010.2
20260903043047 75 0 0.0 0.0 0.00 0.10 0.10 81 1010.9
20260903043010 76 80 0.0 0.0 0.00 0.10 0.10 81 1010.2
20260903042521 76 0 0.0 2.0 0.00 0.10 0.10 81 1010.9
20260903042511 76 80 0.0 0.0 0.00 0.10 0.10 81 1010.2
20260903042022 76 0 0.0 3.0 0.00 0.10 0.10 81 1010.9
20260903042011 76 80 0.0 0.0 0.00 0.10 0.10 80 1010.2
20260903041550 76 0 0.0 3.0 0.00 0.10 0.10 81 1011.0
20260903041511 76 80 0.0 0.0 0.00 0.10 0.10 80 1010.3
20260903041020 76 80 1.0 3.0 0.00 0.10 0.10 80 1011.1
20260903041011 76 80 2.0 0.0 0.00 0.10 0.10 80 1010.3
20260903040520 76 0 0.0 0.0 0.00 0.10 0.10 81 1011.2
20260903040510 76 80 0.0 0.0 0.00 0.10 0.10 80 1010.5
20260903040043 76 0 0.0 0.0 0.00 0.10 0.10 81 1011.2
20260903040010 76 80 0.0 0.0 0.00 0.10 0.10 80 1010.5
20260903035519 76 0 0.0 0.0 0.00 0.10 0.10 81 1011.3
20260903035019 76 0 0.0 0.0 0.00 0.10 0.10 81 1011.2
20260903035011 77 80 0.0 0.0 0.00 0.10 0.10 80 1010.6
20260903034542 76 0 0.0 0.0 0.00 0.10 0.10 81 1011.2
20260903034510 77 80 0.0 0.0 0.00 0.10 0.10 80 1010.6
20260903034027 76 0 0.0 0.0 0.00 0.10 0.10 80 1011.3
20260903034011 77 80 0.0 0.0 0.00 0.10 0.10 80 1010.6
20260903033523 76 0 0.0 0.0 0.00 0.10 0.10 80 1011.2
20260903033510 77 80 0.0 0.0 0.00 0.10 0.10 80 1010.5
20260903033040 77 0 0.0 0.0 0.00 0.10 0.10 80 1011.2
20260903033010 77 80 0.0 0.0 0.00 0.10 0.10 80 1010.6
20260903032523 77 0 0.0 0.0 0.00 0.10 0.10 80 1011.2
20260903032022 77 0 0.0 0.0 0.00 0.10 0.10 80 1011.4
20260903031541 77 0 0.0 3.0 0.00 0.10 0.10 80 1011.3
20260903031019 77 0 0.0 3.0 0.00 0.10 0.10 80 1011.3
20260903030519 77 0 0.0 4.0 0.00 0.10 0.10 80 1011.2
20260903030510 78 80 0.0 0.0 0.00 0.10 0.10 80 1010.5
20260903030038 77 80 2.0 4.0 0.00 0.10 0.10 80 1011.2
20260903030011 78 80 1.0 0.0 0.00 0.10 0.10 80 1010.4
20260903025522 77 78 2.0 4.0 0.00 0.10 0.10 80 1011.2
20260903025510 78 78 2.0 0.0 0.00 0.10 0.10 80 1010.5
20260903025024 77 78 2.0 3.0 0.00 0.10 0.10 80 1011.2
20260903025010 78 78 1.0 0.0 0.00 0.10 0.10 80 1010.4
20260903024542 77 78 1.0 3.0 0.00 0.10 0.10 80 1011.3
20260903024510 78 78 3.0 0.0 0.00 0.10 0.10 80 1010.5
20260903024024 77 0 0.0 0.0 0.00 0.10 0.10 80 1011.3
20260903023521 78 0 0.0 0.0 0.00 0.10 0.10 79 1011.2
20260903023511 78 78 0.0 0.0 0.00 0.10 0.10 79 1010.5
20260903023041 78 0 0.0 0.0 0.00 0.10 0.10 78 1011.3
20260903022520 78 0 0.0 0.0 0.00 0.10 0.10 78 1011.3
20260903022510 78 78 0.0 0.0 0.00 0.10 0.10 78 1010.6
20260903022020 78 0 0.0 0.0 0.00 0.10 0.10 78 1011.3
20260903022010 79 78 0.0 0.0 0.00 0.10 0.10 77 1010.5
20260903021550 78 0 0.0 0.0 0.00 0.10 0.10 77 1011.3
20260903021511 79 78 0.0 0.0 0.00 0.10 0.10 77 1010.5
20260903021020 79 0 0.0 3.0 0.00 0.10 0.10 77 1011.2
20260903021011 79 78 0.0 0.0 0.00 0.10 0.10 77 1010.4
20260903020519 79 0 0.0 3.0 0.00 0.10 0.10 78 1011.2
20260903020510 79 78 0.0 0.0 0.00 0.10 0.10 77 1010.4
20260903020045 79 78 1.0 6.0 0.00 0.10 0.10 78 1011.2
20260903015520 79 79 2.0 7.0 0.00 0.10 0.10 77 1011.1
20260903015511 79 79 3.0 1.0 0.00 0.10 0.10 77 1010.3
20260903015025 79 76 2.0 7.0 0.00 0.10 0.10 77 1010.9
20260903015011 80 78 3.0 1.0 0.00 0.10 0.10 77 1010.1
20260903014547 79 78 2.0 6.0 0.00 0.10 0.10 77 1010.8
20260903014511 80 78 4.0 1.0 0.00 0.10 0.10 77 1010.0
20260903014021 79 111 0.0 3.0 0.00 0.10 0.10 77 1010.7
20260903013520 80 0 0.0 0.0 0.00 0.10 0.10 76 1010.7
20260903013511 80 128 0.0 0.0 0.00 0.10 0.10 76 1009.9
20260903013041 80 0 0.0 0.0 0.00 0.10 0.10 76 1010.7
20260903012523 80 0 0.0 0.0 0.00 0.10 0.10 74 1010.7
20260903012022 80 0 0.0 0.0 0.00 0.10 0.10 73 1010.6
20260903012011 81 168 0.0 0.0 0.00 0.10 0.10 72 1009.8
20260903011539 81 0 0.0 2.0 0.00 0.10 0.10 72 1010.4
20260903011511 81 168 0.0 0.0 0.00 0.10 0.10 72 1009.7
20260903011021 81 0 0.0 2.0 0.00 0.10 0.10 72 1010.3
20260903011011 81 168 0.0 0.0 0.00 0.10 0.10 71 1009.6
20260903010519 81 0 0.0 2.0 0.00 0.10 0.10 72 1010.4
20260903010511 82 168 0.0 0.0 0.00 0.10 0.10 71 1009.7
20260903010038 81 0 0.0 0.0 0.00 0.10 0.10 71 1010.3
20260903010011 82 195 0.0 0.0 0.00 0.10 0.10 70 1009.6
20260903005518 82 0 0.0 0.0 0.00 0.10 0.10 70 1010.4
20260903005510 82 195 0.0 0.0 0.00 0.10 0.10 70 1009.7
20260903005025 82 0 0.0 0.0 0.00 0.10 0.10 70 1010.3
20260903005011 82 195 0.0 0.0 0.00 0.10 0.10 69 1009.6
20260903004542 82 0 0.0 0.0 0.00 0.10 0.10 69 1010.2
20260903004019 82 0 0.0 0.0 0.00 0.10 0.10 69 1010.3
20260903004010 83 195 0.0 0.0 0.00 0.10 0.10 69 1009.7
20260903003526 83 0 0.0 0.0 0.00 0.10 0.10 69 1010.4
20260903003511 83 195 0.0 0.0 0.00 0.10 0.10 68 1009.7
20260903003043 83 0 0.0 0.0 0.00 0.10 0.10 68 1010.3
20260903003010 83 195 0.0 0.0 0.00 0.10 0.10 68 1009.6
20260903002521 83 0 0.0 0.0 0.00 0.10 0.10 67 1010.2
20260903002510 83 195 0.0 0.0 0.00 0.10 0.10 67 1009.5
20260903002019 83 0 0.0 0.0 0.00 0.10 0.10 67 1010.2
20260903002011 84 195 0.0 0.0 0.00 0.10 0.10 66 1009.5
20260903001538 83 0 0.0 0.0 0.00 0.10 0.10 66 1010.1
20260903001022 83 0 0.0 0.0 0.00 0.10 0.10 65 1010.2
20260903001010 84 195 0.0 0.0 0.00 0.10 0.10 64 1009.5
20260903000518 83 0 0.0 0.0 0.00 0.10 0.10 64 1010.1
20260903000510 84 195 0.0 0.0 0.00 0.10 0.10 64 1009.5
20260903000040 84 0 0.0 0.0 0.00 0.10 0.10 64 1010.3
20260903000011 84 195 0.0 0.0 0.00 0.10 0.10 63 1009.6
20260902235520 84 0 0.0 4.0 0.00 0.10 0.10 63 1010.3
20260902235510 84 195 0.0 0.0 0.00 0.10 0.10 63 1009.7
20260902235020 84 0 0.0 4.0 0.00 0.10 0.10 63 1010.4
20260902235010 84 195 0.0 0.0 0.00 0.10 0.10 63 1009.8
20260902234538 84 0 0.0 3.0 0.00 0.10 0.10 63 1010.5
20260902234510 84 195 0.0 0.0 0.00 0.10 0.10 63 1009.8
20260902234021 84 0 0.0 0.0 0.00 0.10 0.10 63 1010.4
20260902234010 84 201 0.0 0.0 0.00 0.10 0.10 63 1009.8
20260902233521 84 0 0.0 3.0 0.00 0.10 0.10 63 1010.4
20260902233510 84 211 0.0 0.0 0.00 0.10 0.10 63 1009.8
20260902233042 84 0 0.0 3.0 0.00 0.10 0.10 63 1010.5
20260902233011 84 211 0.0 0.0 0.00 0.10 0.10 62 1009.8
20260902232519 84 0 0.0 3.0 0.00 0.10 0.10 63 1010.6
20260902232510 84 211 0.0 0.0 0.00 0.10 0.10 62 1009.7
20260902232018 84 0 0.0 0.0 0.00 0.10 0.10 64 1010.5
20260902232011 84 180 0.0 0.0 0.00 0.10 0.10 63 1009.8
20260902231541 84 0 0.0 4.0 0.00 0.10 0.10 65 1010.4
20260902231511 84 180 0.0 0.0 0.00 0.10 0.10 65 1009.7
20260902231020 83 0 0.0 5.0 0.00 0.10 0.10 67 1010.4
20260902231011 84 180 0.0 0.0 0.00 0.10 0.10 66 1009.7
20260902230520 83 0 1.0 5.0 0.00 0.10 0.10 65 1010.4
20260902230510 84 180 0.0 0.0 0.00 0.10 0.10 65 1009.7
20260902230039 83 224 1.0 4.0 0.00 0.10 0.10 65 1010.4
20260902230011 83 224 1.0 0.0 0.00 0.10 0.10 64 1009.7
20260902225520 83 0 0.0 0.0 0.00 0.10 0.10 69 1010.5
20260902225510 83 58 0.0 0.0 0.00 0.10 0.10 69 1009.7
20260902225020 83 0 0.0 0.0 0.00 0.10 0.10 69 1010.5
20260902225010 83 58 0.0 0.0 0.00 0.10 0.10 68 1009.7
20260902224543 83 0 0.0 0.0 0.00 0.10 0.10 70 1010.5
20260902224510 83 57 0.0 0.0 0.00 0.10 0.10 69 1009.7
20260902224023 83 0 0.0 0.0 0.00 0.10 0.10 68 1010.4
20260902224010 83 57 0.0 0.0 0.00 0.10 0.10 67 1009.7
20260902223521 83 0 0.0 0.0 0.00 0.10 0.10 69 1010.4
20260902223511 83 57 0.0 0.0 0.00 0.10 0.10 68 1009.7
20260902223042 83 0 0.0 0.0 0.00 0.10 0.10 70 1010.4
20260902223010 83 57 0.0 0.0 0.00 0.10 0.10 69 1009.7
20260902222524 83 0 0.0 0.0 0.00 0.10 0.10 69 1010.5
20260902222511 83 57 0.0 0.0 0.00 0.10 0.10 68 1009.7
20260902222022 83 0 0.0 0.0 0.00 0.10 0.10 66 1010.6
20260902222011 83 57 0.0 0.0 0.00 0.10 0.10 66 1009.7
20260902221544 83 0 0.0 0.0 0.00 0.10 0.10 65 1010.6
20260902221511 83 57 0.0 0.0 0.00 0.10 0.10 64 1009.7
20260902221020 83 0 0.0 0.0 0.00 0.10 0.10 67 1010.6
20260902221011 83 57 0.0 0.0 0.00 0.10 0.10 67 1009.7
20260902220520 83 0 0.0 0.0 0.00 0.10 0.10 65 1010.6
20260902220045 83 0 0.0 0.0 0.00 0.10 0.10 65 1010.6
20260902220010 83 56 0.0 0.0 0.00 0.10 0.10 64 1009.7
20260902215517 83 0 0.0 3.0 0.00 0.10 0.10 65 1010.5
20260902215019 83 0 0.0 3.0 0.00 0.10 0.10 63 1010.6
20260902215011 83 56 0.0 0.0 0.00 0.10 0.10 65 1009.8
20260902214548 82 55 0.0 3.0 0.00 0.10 0.10 63 1010.6
20260902214023 82 0 0.0 3.0 0.00 0.10 0.10 65 1010.7
20260902214011 83 69 0.0 0.0 0.00 0.10 0.10 64 1009.8
20260902213518 82 69 1.0 3.0 0.00 0.10 0.10 66 1010.7
20260902213511 83 69 0.0 0.0 0.00 0.10 0.10 66 1009.9
20260902213042 82 70 1.0 3.0 0.00 0.10 0.10 66 1010.8
20260902213011 83 70 3.0 0.0 0.00 0.10 0.10 66 1009.9
20260902212520 82 70 0.0 3.0 0.00 0.10 0.10 69 1010.7
20260902212511 83 70 1.0 0.0 0.00 0.10 0.10 69 1009.9
20260902212019 82 0 0.0 2.0 0.00 0.10 0.10 68 1010.8
20260902212011 83 72 0.0 0.0 0.00 0.10 0.10 67 1010.0
20260902211548 82 0 0.0 3.0 0.00 0.10 0.10 67 1010.8
20260902211021 82 73 1.0 3.0 0.00 0.10 0.10 67 1010.8
20260902211011 83 72 1.0 0.0 0.00 0.10 0.10 66 1010.0
20260902210520 82 73 1.0 4.0 0.00 0.10 0.10 68 1010.8
20260902210511 83 73 2.0 0.0 0.00 0.10 0.10 67 1010.0
20260902210107 82 74 2.0 4.0 0.00 0.10 0.10 67 1010.7
20260902210011 83 74 2.0 0.0 0.00 0.10 0.10 67 1010.0
20260902205518 82 74 2.0 4.0 0.00 0.10 0.10 68 1010.9
20260902205510 83 74 2.0 0.0 0.00 0.10 0.10 67 1010.1
20260902205021 82 74 2.0 5.0 0.00 0.10 0.10 68 1010.9
20260902205011 83 74 2.0 0.0 0.00 0.10 0.10 68 1010.1
20260902204543 82 72 2.0 5.0 0.00 0.10 0.10 66 1010.8
20260902204511 83 72 2.0 0.0 0.00 0.10 0.10 66 1010.1
20260902204024 83 72 2.0 5.0 0.00 0.10 0.10 69 1011.0
20260902204011 83 72 2.0 0.0 0.00 0.10 0.10 66 1010.1
20260902203521 83 67 2.0 4.0 0.00 0.10 0.10 66 1011.0
20260902203044 83 65 1.0 3.0 0.00 0.10 0.10 68 1011.0
20260902202521 83 66 2.0 3.0 0.00 0.10 0.10 69 1011.1
20260902202511 83 66 2.0 0.0 0.00 0.10 0.10 68 1010.2
20260902202018 83 0 0.0 3.0 0.00 0.10 0.10 69 1011.2
20260902202011 83 68 1.0 0.0 0.00 0.10 0.10 68 1010.3
20260902201539 83 0 1.0 3.0 0.00 0.10 0.10 69 1011.3
20260902201511 83 68 0.0 0.0 0.00 0.10 0.10 69 1010.5
20260902201018 83 68 1.0 3.0 0.00 0.10 0.10 69 1011.4
20260902201011 84 68 3.0 0.0 0.00 0.10 0.10 68 1010.5
20260902200519 83 68 2.0 3.0 0.00 0.10 0.10 65 1011.5
20260902200038 83 67 2.0 4.0 0.00 0.10 0.10 68 1011.6
20260902200011 84 67 2.0 0.0 0.00 0.10 0.10 67 1010.8
20260902195521 83 67 2.0 4.0 0.00 0.10 0.10 65 1011.6
20260902195511 84 67 2.0 0.0 0.00 0.10 0.10 65 1010.9
20260902195019 83 67 0.0 4.0 0.00 0.10 0.10 65 1011.7
20260902194543 84 0 1.0 4.0 0.00 0.10 0.10 65 1011.7
20260902194019 84 68 2.0 4.0 0.00 0.10 0.10 64 1011.7
20260902194010 84 68 3.0 0.0 0.00 0.10 0.10 64 1010.9
20260902193519 84 66 2.0 3.0 0.00 0.10 0.10 66 1011.8
20260902193511 84 66 3.0 0.0 0.00 0.10 0.10 66 1011.0
20260902193043 84 71 1.0 3.0 0.00 0.10 0.10 65 1011.7
20260902193011 85 71 2.0 0.0 0.00 0.10 0.10 65 1011.0
20260902192521 84 72 1.0 3.0 0.00 0.10 0.10 62 1011.8
20260902192019 85 72 0.0 2.0 0.00 0.10 0.10 63 1011.9
20260902191545 85 0 0.0 3.0 0.00 0.10 0.10 64 1011.8
20260902191511 86 72 0.0 0.0 0.00 0.10 0.10 63 1011.0
20260902191018 85 0 0.0 3.0 0.00 0.10 0.10 62 1011.7
20260902190520 85 0 0.0 3.0 0.00 0.10 0.10 60 1011.8
20260902190510 86 72 0.0 0.0 0.00 0.10 0.10 60 1011.0
20260902190041 86 72 2.0 3.0 0.00 0.10 0.10 61 1011.8
20260902190011 86 72 3.0 0.0 0.00 0.10 0.10 61 1011.0
20260902185519 86 71 1.0 4.0 0.00 0.10 0.10 60 1011.8
20260902185511 86 71 2.0 0.0 0.00 0.10 0.10 60 1011.0
20260902185020 86 71 2.0 4.0 0.00 0.10 0.10 62 1011.8
20260902185011 86 71 3.0 0.0 0.00 0.10 0.10 62 1011.0
20260902184541 86 66 1.0 4.0 0.00 0.10 0.10 65 1011.7
20260902184511 86 66 2.0 0.0 0.00 0.10 0.10 64 1011.0
20260902184021 85 66 0.0 3.0 0.00 0.10 0.10 63 1011.8
20260902184011 86 66 2.0 0.0 0.00 0.10 0.10 62 1011.0
20260902183525 85 70 1.0 3.0 0.00 0.10 0.10 63 1011.9
20260902183511 86 70 2.0 0.0 0.00 0.10 0.10 62 1011.1
20260902183047 85 70 2.0 4.0 0.00 0.10 0.10 62 1011.9
20260902183011 86 70 2.0 0.0 0.00 0.10 0.10 62 1011.1
20260902182520 85 70 3.0 4.0 0.00 0.10 0.10 63 1012.0
20260902182511 85 70 3.0 0.0 0.00 0.10 0.10 63 1011.2
20260902182019 85 70 2.0 4.0 0.00 0.10 0.10 62 1012.2
20260902182011 85 70 3.0 0.0 0.00 0.10 0.10 62 1011.3
20260902181549 84 69 2.0 4.0 0.00 0.10 0.10 64 1012.2
20260902181511 85 69 3.0 0.0 0.00 0.10 0.10 63 1011.4
20260902181023 84 71 2.0 4.0 0.00 0.10 0.10 67 1012.4
20260902181011 84 71 3.0 0.0 0.00 0.10 0.10 66 1011.5
20260902180522 83 75 2.0 4.0 0.00 0.10 0.10 68 1012.4
20260902180511 84 75 2.0 0.0 0.00 0.10 0.10 67 1011.6
20260902180011 84 85 4.0 0.0 0.00 0.10 0.10 68 1011.8
20260902175520 83 107 1.0 5.0 0.00 0.10 0.10 69 1012.8
20260902175511 83 107 3.0 0.0 0.00 0.10 0.10 68 1012.0
20260902175018 82 0 0.0 6.0 0.00 0.10 0.10 71 1012.8
20260902174540 82 184 1.0 6.0 0.00 0.10 0.10 73 1013.1
20260902174511 82 184 3.0 1.0 0.00 0.10 0.10 72 1012.2
20260902174023 81 193 1.0 6.0 0.00 0.10 0.10 71 1013.0
20260902174011 82 193 2.0 1.0 0.00 0.10 0.10 70 1012.3
20260902173518 81 0 2.0 6.0 0.00 0.10 0.10 73 1013.1
20260902173511 81 201 0.0 1.0 0.00 0.10 0.10 72 1012.4
20260902173042 81 0 1.0 5.0 0.00 0.10 0.10 72 1013.2
20260902173011 81 81 0.0 0.0 0.00 0.10 0.10 71 1012.4
20260902172519 80 0 0.0 0.0 0.00 0.10 0.10 73 1013.2
20260902172511 80 68 0.0 0.0 0.00 0.10 0.10 72 1012.4
20260902172024 80 0 0.0 3.0 0.00 0.10 0.10 74 1013.1
20260902172011 80 67 0.0 0.0 0.00 0.10 0.10 73 1012.3
20260902171549 79 0 0.0 3.0 0.00 0.10 0.10 75 1012.9
20260902171511 80 67 0.0 0.0 0.00 0.10 0.10 76 1012.2
20260902171020 79 66 1.0 4.0 0.00 0.10 0.10 75 1012.9
20260902171011 79 66 1.0 0.0 0.00 0.10 0.10 73 1012.1
20260902170521 79 66 2.0 4.0 0.00 0.10 0.10 74 1012.8
20260902170511 79 66 1.0 0.0 0.00 0.10 0.10 73 1012.1
20260902170044 79 65 2.0 4.0 0.00 0.10 0.10 73 1013.0
20260902170011 79 65 3.0 0.0 0.00 0.10 0.10 72 1012.2
20260902165521 79 0 0.0 3.0 0.00 0.10 0.10 74 1013.1
20260902165511 79 66 0.0 0.0 0.00 0.10 0.10 74 1012.4
20260902165020 79 0 1.0 4.0 0.00 0.10 0.10 73 1013.1
20260902165011 79 66 0.0 0.0 0.00 0.10 0.10 73 1012.4
20260902164543 79 66 2.0 4.0 0.00 0.10 0.10 72 1013.1
20260902164511 79 66 3.0 0.0 0.00 0.10 0.10 72 1012.4
20260902164019 79 64 2.0 4.0 0.00 0.10 0.10 72 1013.1
20260902164011 80 64 2.0 0.0 0.00 0.10 0.10 72 1012.3
20260902163520 80 63 1.0 4.0 0.00 0.10 0.10 70 1013.0
20260902163511 80 63 2.0 0.0 0.00 0.10 0.10 70 1012.2
20260902163037 80 62 2.0 4.0 0.00 0.10 0.10 69 1013.1
20260902163011 81 62 2.0 0.0 0.00 0.10 0.10 69 1012.3
20260902162518 80 0 0.0 0.0 0.00 0.10 0.10 69 1013.2
20260902162511 81 62 0.0 0.0 0.00 0.10 0.10 69 1012.4
20260902162026 80 0 0.0 3.0 0.00 0.10 0.10 70 1013.1
20260902161544 80 0 0.0 3.0 0.00 0.10 0.10 71 1013.0
20260902161021 80 60 1.0 3.0 0.00 0.10 0.10 73 1012.9
20260902160520 80 59 1.0 4.0 0.00 0.10 0.10 72 1012.9
20260902160511 80 59 2.0 0.0 0.00 0.10 0.10 71 1012.1
20260902160041 80 58 2.0 4.0 0.00 0.10 0.10 72 1012.8
20260902160011 80 58 2.0 0.0 0.00 0.10 0.10 71 1012.1
20260902155520 80 66 3.0 4.0 0.00 0.10 0.10 72 1012.9
20260902155511 80 66 3.0 0.0 0.00 0.10 0.10 71 1012.1
20260902155021 80 66 2.0 4.0 0.00 0.10 0.10 71 1012.9
20260902154540 80 66 2.0 3.0 0.00 0.10 0.10 71 1012.9
20260902154511 80 66 3.0 0.0 0.00 0.10 0.10 71 1012.2
20260902154018 80 65 1.0 4.0 0.00 0.10 0.10 72 1013.0
20260902154011 80 65 1.0 0.0 0.00 0.10 0.10 71 1012.2
20260902153518 79 65 2.0 4.0 0.00 0.10 0.10 75 1012.9
20260902153511 80 65 2.0 0.0 0.00 0.10 0.10 75 1012.2
20260902153041 79 0 0.0 1.0 0.00 0.10 0.10 75 1013.0
20260902152519 79 0 0.0 3.0 0.00 0.10 0.10 75 1012.8
20260902152511 79 64 0.0 0.0 0.00 0.10 0.10 75 1012.1
20260902152024 78 0 0.0 3.0 0.00 0.10 0.10 78 1012.9
20260902152011 79 66 0.0 0.0 0.00 0.10 0.10 77 1012.1
20260902151544 78 0 0.0 4.0 0.00 0.10 0.10 79 1012.8
20260902151025 77 0 0.0 4.0 0.00 0.10 0.10 79 1012.8
20260902151011 78 64 0.0 0.0 0.00 0.10 0.10 78 1012.0
20260902150523 77 64 2.0 4.0 0.00 0.10 0.10 80 1012.8
20260902150511 77 64 2.0 0.0 0.00 0.10 0.10 80 1012.0
20260902150042 76 0 0.0 0.0 0.00 0.10 0.10 79 1012.9
20260902150011 77 64 0.0 0.0 0.00 0.10 0.10 78 1012.1
20260902145524 76 0 0.0 0.0 0.00 0.10 0.10 81 1012.8
20260902145511 76 64 0.0 0.0 0.00 0.10 0.10 80 1012.1
20260902145018 75 0 0.0 0.0 0.00 0.10 0.10 83 1012.8
20260902145011 75 68 0.0 0.0 0.00 0.10 0.10 82 1012.1
20260902144554 74 0 0.0 2.0 0.00 0.10 0.10 81 1012.8
20260902144020 74 0 0.0 2.0 0.00 0.10 0.10 83 1012.8
20260902143518 73 0 0.0 1.0 0.00 0.10 0.10 86 1012.9
20260902143511 74 71 0.0 0.0 0.00 0.10 0.10 85 1012.2
20260902143042 73 0 0.0 3.0 0.00 0.10 0.10 85 1012.9
20260902143011 73 72 0.0 0.0 0.00 0.10 0.10 85 1012.1
20260902142520 72 0 0.0 4.0 0.00 0.10 0.10 88 1013.1
20260902142511 73 72 0.0 0.0 0.00 0.10 0.10 87 1012.4
20260902142018 72 0 0.0 4.0 0.00 0.10 0.10 88 1013.2
20260902142011 72 73 0.0 0.0 0.00 0.10 0.10 88 1012.5
20260902141541 71 74 0.0 6.0 0.00 0.10 0.10 90 1013.3
20260902141026 70 73 1.0 6.0 0.00 0.10 0.10 91 1013.3
20260902140519 69 78 2.0 6.0 0.00 0.10 0.10 91 1013.2
20260902140511 70 78 3.0 1.0 0.00 0.10 0.10 90 1012.4
20260902140039 69 68 0.0 6.0 0.00 0.10 0.10 92 1013.0
20260902140011 69 72 3.0 1.0 0.00 0.10 0.10 92 1012.3
20260902135518 68 64 2.0 5.0 0.00 0.10 0.10 92 1012.9
20260902135511 68 73 3.0 1.0 0.00 0.10 0.10 92 1012.2
20260902135018 68 71 1.0 5.0 0.00 0.10 0.10 92 1013.0
20260902135011 68 70 3.0 0.0 0.00 0.10 0.10 92 1012.3
20260902134541 67 71 2.0 5.0 0.00 0.10 0.10 94 1013.1
20260902134511 68 71 4.0 0.0 0.00 0.10 0.10 93 1012.3
20260902134019 67 70 1.0 4.0 0.00 0.10 0.10 93 1013.2
20260902133521 66 69 0.0 3.0 0.00 0.10 0.10 93 1013.2
20260902133511 67 69 1.0 0.0 0.00 0.10 0.10 92 1012.4
20260902133040 66 0 0.0 5.0 0.00 0.10 0.10 92 1013.0
20260902133011 66 69 0.0 0.0 0.00 0.10 0.10 92 1012.2
20260902132519 66 69 2.0 5.0 0.00 0.10 0.10 92 1012.7
20260902132511 66 69 1.0 0.0 0.00 0.10 0.10 92 1012.0
20260902132018 66 68 2.0 4.0 0.00 0.10 0.10 93 1012.8
20260902132011 66 68 1.0 0.0 0.00 0.10 0.10 92 1012.0
20260902131543 66 0 0.0 6.0 0.00 0.10 0.10 93 1012.9
20260902131511 66 72 0.0 0.0 0.00 0.10 0.10 92 1012.1
20260902131019 66 72 1.0 6.0 0.00 0.10 0.10 93 1012.9
20260902130520 65 73 2.0 6.0 0.00 0.10 0.10 93 1013.0
20260902130511 66 73 2.0 1.0 0.00 0.10 0.10 92 1012.2
20260902130042 65 74 1.0 6.0 0.00 0.10 0.10 93 1013.1
20260902130011 66 74 3.0 1.0 0.00 0.10 0.10 92 1012.3
20260902125518 65 74 2.0 6.0 0.00 0.10 0.10 92 1012.9
20260902125511 66 74 2.0 1.0 0.00 0.10 0.10 92 1012.2
20260902125019 65 68 3.0 7.0 0.00 0.10 0.10 93 1012.9
20260902125011 66 68 2.0 1.0 0.00 0.10 0.10 92 1012.1
20260902124542 65 74 3.0 7.0 0.00 0.10 0.10 93 1013.0
20260902124511 66 73 2.0 1.0 0.00 0.10 0.10 92 1012.2
20260902124019 65 70 3.0 7.0 0.00 0.10 0.10 93 1013.1
20260902124011 66 68 4.0 1.0 0.00 0.10 0.10 93 1012.3
20260902123518 65 68 3.0 6.0 0.00 0.10 0.10 93 1013.0
20260902123512 65 68 3.0 1.0 0.00 0.10 0.10 92 1012.2
20260902123040 65 0 0.0 0.0 0.00 0.10 0.10 93 1013.1
20260902123011 65 169 0.0 0.0 0.00 0.10 0.10 92 1012.4
20260902122518 65 0 0.0 0.0 0.00 0.10 0.10 92 1013.2
20260902122511 65 170 0.0 0.0 0.00 0.10 0.10 92 1012.5
20260902122019 65 0 0.0 0.0 0.00 0.10 0.10 92 1013.2
20260902121539 65 0 0.0 0.0 0.00 0.10 0.10 92 1013.3
20260902121026 65 0 0.0 0.0 0.00 0.10 0.10 92 1013.3
20260902121010 65 220 0.0 0.0 0.00 0.10 0.10 92 1012.5
20260902120518 65 0 0.0 0.0 0.00 0.10 0.10 93 1013.2
20260902120045 65 0 0.0 0.0 0.00 0.10 0.10 93 1013.3
20260902120010 65 219 0.0 0.0 0.00 0.10 0.10 92 1012.5
20260902115518 65 0 0.0 0.0 0.00 0.10 0.10 93 1013.3
20260902115510 65 219 0.0 0.0 0.00 0.10 0.10 92 1012.5
20260902115018 65 0 0.0 1.0 0.00 0.10 0.10 93 1013.4
20260902115010 65 219 0.0 0.0 0.00 0.10 0.10 92 1012.7
20260902114545 65 0 0.0 1.0 0.00 0.10 0.10 93 1013.6
20260902114510 65 219 0.0 0.0 0.00 0.10 0.10 92 1012.9
20260902114021 64 0 0.0 0.0 0.00 0.10 0.10 92 1013.7
20260902114010 65 219 0.0 0.0 0.00 0.10 0.10 92 1012.9
20260902113519 64 0 0.0 0.0 0.00 0.10 0.10 92 1013.8
20260902113510 65 219 0.0 0.0 0.00 0.10 0.10 92 1013.0
20260902113049 64 0 0.0 2.0 0.00 0.10 0.10 92 1013.9
20260902113010 65 219 0.0 0.0 0.00 0.10 0.10 91 1013.1
20260902112518 64 0 0.0 2.0 0.00 0.10 0.10 92 1014.1
20260902112510 65 219 0.0 0.0 0.00 0.10 0.10 92 1013.3
20260902112018 64 0 0.0 4.0 0.00 0.10 0.10 92 1014.1
20260902112010 65 219 0.0 0.0 0.00 0.10 0.10 91 1013.4
20260902111545 64 219 0.0 5.0 0.00 0.10 0.10 92 1014.2
20260902111018 64 207 2.0 5.0 0.00 0.10 0.10 92 1014.1
20260902111010 65 207 2.0 0.0 0.00 0.10 0.10 91 1013.4
20260902110520 64 236 2.0 4.0 0.00 0.10 0.10 92 1014.0
20260902110510 65 236 2.0 0.0 0.00 0.10 0.10 91 1013.3
20260902110040 64 0 0.0 4.0 0.00 0.10 0.10 92 1014.0
20260902105518 65 249 1.0 6.0 0.00 0.10 0.10 92 1013.8
20260902105510 65 249 2.0 1.0 0.00 0.10 0.10 91 1013.1
20260902105018 65 231 1.0 6.0 0.00 0.10 0.10 92 1013.7
20260902105010 65 231 2.0 1.0 0.00 0.10 0.10 91 1012.9
20260902104541 65 230 0.0 3.0 0.00 0.10 0.10 92 1013.6
20260902104510 65 230 1.0 0.0 0.00 0.10 0.10 91 1012.8
20260902104019 65 230 1.0 4.0 0.00 0.10 0.10 92 1013.6
20260902104010 65 230 1.0 0.0 0.00 0.10 0.10 91 1012.8
20260902103522 65 0 0.0 4.0 0.00 0.10 0.10 92 1013.3
20260902103510 65 230 0.0 0.0 0.00 0.10 0.10 91 1012.5
20260902103037 65 230 1.0 7.0 0.00 0.10 0.10 92 1013.1
20260902103010 65 230 3.0 1.0 0.00 0.10 0.10 91 1012.4
20260902102520 65 228 2.0 7.0 0.00 0.10 0.10 92 1013.3
20260902102510 65 228 2.0 1.0 0.00 0.10 0.10 91 1012.7
20260902102018 65 242 1.0 7.0 0.00 0.10 0.10 92 1013.1
20260902102010 65 242 2.0 1.0 0.00 0.10 0.10 91 1012.4
20260902101539 65 256 2.0 4.0 0.00 0.10 0.10 91 1013.0
20260902101510 65 256 3.0 0.0 0.00 0.10 0.10 91 1012.3
20260902101018 65 259 2.0 3.0 0.00 0.10 0.10 91 1012.8
20260902100519 65 259 0.0 7.0 0.00 0.10 0.10 91 1012.5
20260902100510 66 259 2.0 1.0 0.00 0.10 0.10 91 1011.8
20260902100042 65 0 1.0 7.0 0.00 0.10 0.10 91 1012.4
20260902100010 66 259 0.0 1.0 0.00 0.10 0.10 90 1011.7
20260902095518 65 235 1.0 5.0 0.00 0.10 0.10 91 1012.5
20260902095019 65 202 2.0 5.0 0.00 0.10 0.10 91 1012.5
20260902095011 66 202 2.0 0.0 0.00 0.10 0.10 90 1011.8
20260902094541 66 180 2.0 5.0 0.00 0.10 0.10 91 1012.4
20260902094018 66 186 3.0 5.0 0.00 0.10 0.10 91 1012.4
20260902093517 66 156 2.0 4.0 0.00 0.10 0.10 91 1012.2
20260902093510 66 156 3.0 0.0 0.00 0.10 0.10 91 1011.3
20260902093041 66 64 1.0 7.0 0.00 0.10 0.10 91 1011.5
20260902092522 66 85 1.0 7.0 0.00 0.10 0.10 91 1011.7
20260902092510 66 85 1.0 1.0 0.00 0.10 0.10 90 1011.0
20260902092023 66 62 2.0 7.0 0.00 0.10 0.10 91 1011.4
20260902091548 66 66 2.0 7.0 0.01 0.10 0.10 91 1011.7
20260902091510 66 66 2.0 1.0 0.01 0.10 0.10 91 1010.9
20260902091019 66 70 2.0 6.0 0.01 0.10 0.10 91 1011.5
20260902090519 66 76 0.0 6.0 0.01 0.10 0.10 91 1011.7
20260902090510 67 76 0.0 1.0 0.01 0.10 0.10 91 1011.0
20260902090041 66 74 1.0 4.0 0.01 0.10 0.10 91 1011.7
20260902090010 67 74 1.0 0.0 0.01 0.10 0.10 90 1011.0
20260902085519 66 80 1.0 4.0 0.01 0.10 0.10 91 1012.2
20260902085510 67 80 0.0 0.0 0.01 0.10 0.10 91 1011.4
20260902085019 66 0 0.0 2.0 0.01 0.10 0.10 91 1012.3
20260902085010 67 141 0.0 0.0 0.01 0.10 0.10 91 1011.5
20260902084541 66 0 0.0 2.0 0.01 0.10 0.10 91 1012.4
20260902084021 67 0 0.0 2.0 0.01 0.10 0.10 91 1012.5
20260902084010 67 141 1.0 0.0 0.02 0.10 0.10 90 1011.7
20260902083519 67 0 0.0 1.0 0.02 0.10 0.10 91 1012.6
20260902083510 67 141 0.0 0.0 0.02 0.10 0.10 90 1012.0
20260902083040 67 0 0.0 2.0 0.03 0.10 0.10 91 1012.8
20260902083010 67 141 0.0 0.0 0.03 0.10 0.10 90 1012.1
20260902082522 67 0 0.0 2.0 0.04 0.10 0.10 90 1012.9
20260902082510 67 141 0.0 0.0 0.04 0.10 0.10 90 1012.2
20260902082022 67 0 0.0 3.0 0.05 0.10 0.10 90 1013.2
20260902082010 67 141 0.0 0.0 0.05 0.10 0.10 90 1012.5
20260902081542 67 141 0.0 3.0 0.05 0.09 0.09 90 1013.3
20260902081023 67 93 1.0 3.0 0.06 0.09 0.09 90 1013.2
20260902080522 67 0 0.0 4.0 0.06 0.09 0.09 91 1012.9
20260902080510 68 93 0.0 0.0 0.06 0.09 0.09 90 1012.2
20260902080047 67 93 1.0 4.0 0.07 0.09 0.09 90 1012.7
20260902080010 68 93 2.0 0.0 0.07 0.09 0.09 90 1011.9
20260902075523 67 93 3.0 6.0 0.07 0.09 0.09 90 1012.5
20260902075510 68 93 2.0 0.0 0.07 0.09 0.09 90 1011.8
20260902075020 68 89 2.0 6.0 0.08 0.09 0.09 90 1012.5
20260902075010 68 90 3.0 1.0 0.08 0.09 0.09 90 1011.6
20260902074541 68 82 3.0 6.0 0.08 0.09 0.09 91 1012.4
20260902074510 68 82 4.0 1.0 0.08 0.09 0.09 90 1011.7
20260902074020 68 214 0.0 5.0 0.07 0.08 0.08 90 1012.8
20260902074010 68 214 3.0 0.0 0.07 0.08 0.08 90 1012.0
20260902073519 68 0 0.0 5.0 0.08 0.08 0.08 90 1013.2
20260902073510 68 214 0.0 0.0 0.08 0.08 0.08 89 1012.5
20260902073038 68 0 1.0 6.0 0.07 0.07 0.07 90 1013.8
20260902073010 68 214 0.0 1.0 0.07 0.07 0.07 89 1013.1
20260902072518 68 184 1.0 8.0 0.06 0.06 0.06 90 1014.4
20260902072510 68 178 1.0 1.0 0.06 0.06 0.06 89 1013.7
20260902072021 68 150 3.0 15.0 0.05 0.05 0.05 89 1014.9
20260902071543 68 171 5.0 15.0 0.04 0.04 0.04 89 1015.3
20260902071511 69 158 7.0 2.0 0.04 0.04 0.04 89 1014.6
20260902071021 68 211 7.0 15.0 0.03 0.03 0.03 90 1015.5
20260902071010 69 171 5.0 2.0 0.03 0.03 0.03 89 1014.8
20260902070521 68 174 4.0 8.0 0.03 0.03 0.03 89 1015.6
20260902070044 68 210 3.0 6.0 0.02 0.02 0.02 89 1015.4
20260902070010 69 210 4.0 1.0 0.02 0.02 0.02 88 1014.6
20260902065519 69 235 1.0 5.0 0.02 0.02 0.02 89 1015.2
20260902065510 69 235 1.0 0.0 0.02 0.02 0.02 88 1014.5